Tracking 29594 objects as of 21-Sep-2024
HD Live streaming from Space Station
objects crossing your sky now

IRIDIUM 128

Track IRIDIUM 128 now!
10-day predictions
IRIDIUM 128 is classified as:


NORAD ID: 42811
Int'l Code: 2017-039J
Perigee: 783.3 km
Apogee: 786.3 km
Inclination: 86.4 °
Period: 100.4 minutes
Semi major axis: 7155 km
RCS: Unknown
Launch date: June 25, 2017
Source: United States (US)
Launch site: AIR FORCE WESTERN TEST RANGE (AFWTR)
Your satellite tracking list
Your tracking list is empty




NASA's NSSDC Master Catalog

Two Line Element Set (TLE):
1 42811U 17039J   24264.31562905  .00000455  00000-0  15530-3 0  9996
2 42811  86.3918 290.4637 0002153  96.1126 264.0315 14.34217518378982
Source of the keplerian elements: AFSPC